Orbital Elements at Epoch 2459200.5 (2020-Dec-17.0) TDB
Reference: JPL 19 (heliocentric ecliptic J2000)
Element | Value | Uncertainty (1-sigma) | Units |
e | .1635464005393502 | 5.3431e-08 | |
a | 3.068344715828518 | 1.7362e-08 | au |
q | 2.566527981940828 | 1.6864e-07 | au |
i | .2526862590462536 | 5.5105e-06 | deg |
node | 139.6798302720505 | 0.00096649 | deg |
peri | 208.1920839227609 | 0.00096657 | deg |
M | 214.4315000524763 | 1.2978e-05 | deg |
tp | 2459994.315467025574 (2023-Feb-18.81546703) | 7.4146e-05 | TDB |
period | 1963.155272138038 5.37 | 1.6663e-05 4.562e-08 | d yr |
n | .1833782610623205 | 1.5565e-09 | deg/d |
Q | 3.570161449716207 | 2.0202e-08 | au |
|
| | Orbit Determination Parameters
Additional Information
|